Simultaneous Nadir Overpasses (SNOs) Predictions

Prediction of SNOs between GOES-16 and AQUA Satellite Orbit:

Table of predicted SNOs for the next 14.0 days since TLE Epoch: 7/18/2025
Index Date Time (GOES-16) GOES-16 Lat,Lon AQUA Lat,Lon Distance(km) Time Diff (sec)
1 07/19/2025 09:53:30 -0.02,-104.72 0.30,-106.28 176.60 80
2 07/21/2025 09:30:26 -0.01,-104.72 -0.74,-101.28 391.34 80
3 07/21/2025 21:49:42 0.01,-104.72 -0.23,-105.94 137.91 80
4 07/23/2025 21:31:58 0.01,-104.72 0.84,-100.94 430.35 80
5 07/24/2025 09:51:06 -0.01,-104.72 0.16,-105.56 96.17 80
6 07/26/2025 09:28:02 -0.01,-104.72 -0.93,-100.57 472.66 80
7 07/26/2025 21:47:18 0.01,-104.73 -0.08,-105.22 56.43 80
8 07/29/2025 09:48:41 -0.01,-104.74 0.01,-104.84 12.46 80
9 07/31/2025 21:47:32 0.01,-104.75 0.08,-104.50 28.49 80
10 08/01/2025 10:06:39 -0.01,-104.75 0.91,-109.13 497.08 80
